Regional Weather Roundup
Issued by NWS Little Rock, AR

Home | Current Version | Previous Version | Graphics & Text | Print | Product List | Glossary On
Versions: 1 2 3 4 5 6 7 8 9 10 11 12 13 14 15 16 17 18 19 20 21 22 23 24 25 26 27 28 29 30 31 32
000
ASUS44 KLZK 161205
RWRLZK

WEATHER ROUNDUP FOR ARKANSAS
NATIONAL WEATHER SERVICE LITTLE ROCK AR
600 AM CST TUE JAN 16 2018

NOTE: "FAIR" INDICATES FEW OR NO CLOUDS BELOW 12,000 FEET WITH NO
SIGNIFICANT WEATHER AND/OR OBSTRUCTIONS TO VISIBILITY.

ARZ001-003-010-029-161300-
NORTHWEST ARKANSAS

CITY           SKY/WX    TMP DP  RH WIND       PRES   REMARKS
FAYETTEVILLE   CLOUDY     4  -3  73 N8        30.69R WCI  -9
6HR MIN TEMP:   4; 6HR MAX TEMP:  11;

FORT SMITH     CLOUDY    13   1  59 N14       30.77R WCI  -2
6HR MIN TEMP:  12; 6HR MAX TEMP:  18;

HARRISON       CLOUDY     2  -4  76 NW10      30.65R WCI -14
6HR MIN TEMP:   2; 6HR MAX TEMP:  10;

BENTONVILLE    CLOUDY     0  -7  72 N7        30.71R WCI -13
6HR MIN TEMP:   0; 6HR MAX TEMP:   8;

ROGERS         CLOUDY     0  -6  76 NW9       30.69R WCI -15
6HR MIN TEMP:   0; 6HR MAX TEMP:   8;

SILOAM SPGS    CLOUDY     3  -4  72 N13       30.72R WCI -14
6HR MIN TEMP:   3; 6HR MAX TEMP:   9;

HIGHFILL       CLOUDY     1  -6  72 N12       30.70R WCI -16
6HR MIN TEMP:   1; 6HR MAX TEMP:   9; 6HR PCP: TRACE;

SPRINGDALE       N/A    N/A N/A N/A N14       30.69
$$

ARZ004-005-016-161300-
NORTH CENTRAL ARKANSAS

CITY           SKY/WX    TMP DP  RH WIND       PRES   REMARKS
BATESVILLE     CLOUDY     9  -2  61 NW13G18   30.70R WCI  -7
6HR MIN TEMP:   9; 6HR MAX TEMP:  18; 6HR PCP: TRACE;

FLIPPIN        CLOUDY     2  -6  69 W8        30.73R WCI -12
6HR MIN TEMP:   2; 6HR MAX TEMP:  13; 6HR PCP: TRACE;

MTN HOME       CLOUDY     0  -5  79 N3        30.68R
6HR MIN TEMP:   0; 6HR MAX TEMP:  12; 6HR PCP: TRACE;

$$

ARZ040-041-161300-
WEST CENTRAL ARKANSAS

CITY           SKY/WX    TMP DP  RH WIND       PRES   REMARKS
MENA           CLOUDY    16   3  57 NW6       30.67R WCI   7
MOUNT IDA      MIX PCPN  15   3  59 VRB7      30.65R WCI   5
6HR MIN TEMP:  15; 6HR MAX TEMP:  22; 6HR PCP: TRACE;

$$

ARZ009-017-025-026-028-161300-
NORTHEAST ARKANSAS

CITY           SKY/WX    TMP DP  RH WIND       PRES   REMARKS
JONESBORO      FAIR      14   4  64 NW7       30.68R WCI   4
6HR MIN TEMP:  14; 6HR MAX TEMP:  20; 6HR PCP: TRACE;

NEWPORT        FAIR      13   3  64 NW18      30.70R WCI  -4
6HR MIN TEMP:  13; 6HR MAX TEMP:  20; 6HR PCP: TRACE;

WALNUT RIDGE   FAIR      10   0  63 NW17      30.70R WCI  -8
6HR MIN TEMP:  10; 6HR MAX TEMP:  19;

BLYTHEVILLE    FAIR      11   6  81 N16       30.67R WCI  -6
6HR MIN TEMP:  11; 6HR MAX TEMP:  19; 6HR PCP: TRACE;

$$

ARZ022-023-033-042-044-161300-
CENTRAL ARKANSAS

CITY           SKY/WX    TMP DP  RH WIND       PRES   REMARKS
LITTLE ROCK    CLOUDY    15   4  61 N13       30.71R WCI   1
6HR MIN TEMP:  15; 6HR MAX TEMP:  22; 6HR PCP:  0.05;

N LITTLE ROCK    N/A     13   3  62 N8        30.73R WCI   2
6HR MIN TEMP:  13; 6HR MAX TEMP:  21;

JACKSONVILLE   CLOUDY    14   1  54 NW9       30.69R WCI   2
6HR MIN TEMP:  14; 6HR MAX TEMP:  22; 6HR PCP:  0.01;

SEARCY         FAIR      13   1  59 N9        30.72R WCI   1
6HR MIN TEMP:  13; 6HR MAX TEMP:  21; 6HR PCP:  0.02;

HOT SPRINGS    CLOUDY    19   6  57 N9        30.67R WCI   8
6HR MIN TEMP:  19; 6HR MAX TEMP:  27; 6HR PCP: TRACE;

RUSSELLVILLE   CLOUDY    13   0  56 NW10      30.72R WCI   0
6HR MIN TEMP:  13; 6HR MAX TEMP:  21;

CLINTON        FAIR       9  -4  56 N9G21     30.73R WCI  -5
$$

ARZ036-161300-
EAST ARKANSAS

CITY           SKY/WX    TMP DP  RH WIND       PRES   REMARKS
WEST MEMPHIS   CLOUDY    15  12  88 N9        30.65R WCI   3
6HR MIN TEMP:  14; 6HR MAX TEMP:  23; 6HR PCP:  0.01;

$$

ARZ050-053-066-070-073-161300-
SOUTHWEST ARKANSAS

CITY           SKY/WX    TMP DP  RH WIND       PRES   REMARKS
ARKADELPHIA    CLOUDY    21  10  62 N9        30.70R WCI  11
6HR MIN TEMP:  21; 6HR MAX TEMP:  29; 6HR PCP: TRACE;

CAMDEN         LGT SNOW  21  16  79 N9        30.69R WCI  11
TEXARKANA      CLOUDY    20  14  77 N5        30.68R WCI  13
6HR MIN TEMP:  19; 6HR MAX TEMP:  28; 6HR PCP:  0.05;

EL DORADO      LGT SNOW  23  22  96 N13       30.66R VSB 1   WCI  11
6HR MIN TEMP:  23; 6HR MAX TEMP:  33; 6HR PCP:  0.05;

DE QUEEN       CLOUDY    19   5  54 N12G18    30.70R WCI   7
6HR MIN TEMP:  19; 6HR MAX TEMP:  25; 6HR PCP: TRACE;

$$

ARZ056-057-069-161300-
SOUTHEAST ARKANSAS

CITY           SKY/WX    TMP DP  RH WIND       PRES   REMARKS
PINE BLUFF     FLURRIES  18  13  80 N9        30.68R WCI   7
6HR MIN TEMP:  17; 6HR MAX TEMP:  26; 6HR PCP:  0.08;

STUTTGART      CLOUDY    17  11  77 N13       30.68R WCI   4
6HR MIN TEMP:  16; 6HR MAX TEMP:  24; 6HR PCP: TRACE;

MONTICELLO     LGT SNOW  21  17  84 VRB7      30.65R VSB 3/4 WCI  12
6HR MIN TEMP:  21; 6HR MAX TEMP:  31; 6HR PCP: TRACE;


$$






USA.gov is the U.S. government's official web portal to all federal, state and local government web resources and services.